Home   Weather   London   Past weeks
Flag for United Kingdom

Past Weather in London, England, United Kingdom — Yesterday and Last 2 Weeks

Now
39 °F

Passing clouds.


Feels Like: 32 °F
Forecast: 48 / 35 °F
Wind: 13 mph from Northeast

Location: Northolt

Current Time: Mar 29, 2020 at 11:09:50 pm

Latest Report: Mar 29, 2020 at 9:50 pm


Visibility: N/A

Pressure: 30.69 "Hg

Humidity: 52%

Dew Point: 23 °F

Location of LondonLocation

Past Weather in London — Graph

°F

London Temperature Yesterday

Maximum temperature yesterday: 50 °F (at 10:50 am)
Minimum temperature yesterday: 41 °F (at 12:50 am)
Average temperature yesterday: 45 °F

High & Low Weather Summary for the Past Weeks

 TemperatureHumidityPressure
High61 °F (Mar 24, 1:50 pm)100% (Mar 15, 4:20 pm)30.69 "Hg (Mar 15, 4:20 pm)
Low28 °F (Mar 25, 3:50 am)1% (Mar 23, 10:50 pm)29.68 "Hg (Mar 15, 12:20 pm)
Average46 °F66%30.25 "Hg
* Reported Mar 14 7:50 pm — Mar 29 8:50 pm, London. Weather by CustomWeather, © 2020

Note: Actual official high and low records may vary slightly from our data, if they occured in-between our weather recording intervals... More about our weather records

London Weather History for the Previous 24 Hours

Scroll right to see more
 ConditionsComfort  
Time TempWeatherWind HumidityBarometerVisibility
8:50 pm
Sun, Mar 29
39 °FClear.16 mph48%30.69 "HgN/A
7:50 pm41 °FPassing clouds.16 mph45%30.69 "HgN/A
6:50 pm43 °FSunny.23 mph39%30.66 "Hg10 mi
6:20 pm43 °FSunny.20 mph42%30.66 "Hg10 mi
5:50 pm45 °FSunny.21 mph39%30.66 "Hg10 mi
5:20 pm45 °FSunny.24 mph37%30.66 "Hg10 mi
4:50 pm45 °FSunny.24 mph37%30.66 "Hg10 mi
4:20 pm46 °FSunny.23 mph37%30.66 "Hg10 mi
3:50 pm46 °FPartly sunny.20 mph43%30.66 "HgN/A
3:20 pm45 °FPartly sunny.23 mph42%30.66 "HgN/A
2:50 pm45 °FSprinkles. Partly sunny.25 mph46%30.66 "HgN/A
1:50 pm45 °FPartly sunny.20 mph53%30.66 "HgN/A
12:50 pm45 °FPartly sunny.23 mph53%30.66 "HgN/A
11:50 am41 °FPartly sunny.24 mph66%30.66 "HgN/A
10:50 am43 °FPartly sunny.23 mph49%30.63 "HgN/A
9:50 am43 °FPassing clouds.25 mph46%30.63 "HgN/A
8:50 am41 °FScattered clouds.22 mph49%30.63 "HgN/A
7:50 am39 °FOvercast.13 mph61%30.60 "HgN/A
6:50 am37 °FPartly sunny.15 mph70%30.60 "HgN/A
5:50 am39 °FOvercast.15 mph61%30.60 "HgN/A
4:50 am39 °FPassing clouds.15 mph61%30.57 "HgN/A
3:50 am39 °FPassing clouds.12 mph65%30.57 "HgN/A
2:50 am39 °FPassing clouds.10 mph70%30.57 "HgN/A
12:50 am39 °FPassing clouds.13 mph75%30.57 "HgN/A
11:50 pm
Sat, Mar 28
41 °FPassing clouds.14 mph76%30.54 "HgN/A
Weather by CustomWeather, © 2020

See weather overview

Advertising